Hourly Weather Roundup
Issued by NWS Central Illinois

Home | Current Version | Previous Version | Text Only | Print | Product List | Glossary On
Versions: 1 2 3 4 5 6 7 8 9 10 11 12 13 14 15 16 17 18 19 20 21 22 23 24 25 26 27 28 29 30 31 32 33 34 35 36 37 38 39 40 41 42 43 44 45 46 47 48 49 50
938
NZUS43 KILX 101510
HWRILX

AREA WEATHER ROUNDUP
NATIONAL WEATHER SERVICE, LINCOLN IL
900 AM CST WED FEB 10 2016


CITY           SKY/WX    TMP DP  RH WIND       PRES   REMARKS
BLOOMINGTON    MOSUNNY   11   3  70 NW13      30.10R WCI  -4
CHAMPAIGN      SUNNY     12   4  70 W20       30.09R WCI  -6
DANVILLE       SUNNY     10   2  72 W12       30.05R WCI  -5
DECATUR        SUNNY     13   3  64 NW13      30.12R WCI  -2
EFFINGHAM      SUNNY     15   8  73 W12G20    30.17R WCI   1
FLORA          SUNNY     17   7  64 W14G20    30.18R WCI   3
GALESBURG      CLOUDY    10   3  72 NW9       30.11F WCI  -2
JACKSONVILLE   CLOUDY    16   6  64 W9        30.15S WCI   5
LACON          SUNNY     12   1  61 NW13      30.11R WCI  -3
LAWRENCEVILLE  SUNNY     14   5  67 W17       30.16R WCI  -3
LITCHFIELD     MOSUNNY   14   4  63 NW10      30.16S WCI   1
$$


CITY           SKY/WX    TMP DP  RH WIND       PRES   REMARKS
LINCOLN        SUNNY     14   5  69 NW9       30.13S WCI   1
MACOMB         MOSUNNY   12   6  77 NW9       30.16R WCI   0
MATTOON        SUNNY     11   3  70 W18       30.11R WCI  -7
MT CARMEL AP   SUNNY     18   5  57 W15       30.16R WCI   3
OLNEY-NOBLE AP SUNNY     18   9  68 W12       30.17R WCI   5
PARIS          SUNNY     13   6  73 W15       30.11R WCI  -3
PEORIA         MOSUNNY   12   2  64 NW8       30.13R WCI   0
PONTIAC        SUNNY     11   5  74 W13       30.10R WCI  -3
RANTOUL        SUNNY     13   4  68 NW17G23   30.08R WCI  -4
ROBINSON       SUNNY     13   6  72 W12       30.16R WCI   0
SPRINGFIELD    MOSUNNY   13   4  67 NW9       30.15R WCI   1
TAYLORVILLE    PTSUNNY   14   5  67 NW13      30.15S WCI   0
$$

...REGIONAL REPORTS...


CITY           SKY/WX    TMP DP  RH WIND       PRES   REMARKS
CHICAGO O`HARE MOSUNNY   12   2  64 NW15      30.03R WCI  -4
KANKAKEE       SUNNY     13   3  65 W12       30.07R WCI  -1
MOLINE         CLOUDY    12   0  58 NW9       30.12S WCI   0
MOUNT STERLING CLOUDY    13   5  70 NW8       30.13F WCI   2
MOUNT VERNON   SUNNY     18   7  62 NW9       30.19R WCI   6
PITTSFIELD     CLOUDY    16   7  67 NW7       30.16S WCI   6
QUINCY         CLOUDY    15   4  61 NW9       30.14S WCI   3
ROCKFORD       MOSUNNY    9  -1  64 NW14      30.08R WCI  -7
$$


CITY           SKY/WX    TMP DP  RH WIND       PRES   REMARKS
BURLINGTON     CLOUDY    12   4  70 NW7       30.13S WCI   1
CEDAR RAPIDS   CLOUDY     8   2  76 NW6       30.11R WCI  -2
DES MOINES     LGT SNOW  16  11  80 VRB5      30.09F VSB 3/4 WCI   9
KIRKSVILLE     LGT SNOW  17   8  67 SW3       30.13F
OTTUMWA        CLOUDY    14   5  67 NW3       30.12S
ST LOUIS       PTSUNNY   20   7  57 W10       30.19R WCI   9
$$


CITY           SKY/WX    TMP DP  RH WIND       PRES   REMARKS
TERRE HAUTE    MOSUNNY   12   3  67 NW17      30.12R WCI  -5
EVANSVILLE     MOSUNNY   18   6  59 W12G18    30.19R WCI   5
INDIANAPOLIS   PTSUNNY   12   4  70 W16       30.03R WCI  -5
LAFAYETTE      SUNNY     11   4  73 W13G23    30.05R WCI  -4
MADISON        MOSUNNY    6  -4  63 NW8       30.04S WCI  -7
MILWAUKEE      MOSUNNY   12  -1  56 NW13      30.01R WCI  -3
$$






USA.gov is the U.S. government's official web portal to all federal, state and local government web resources and services.